Camarillo, CA

10:48 AM PDT on May 27, 2017 (GMT -0700)
Camarillo

Weather History for KCMA - August, 2013

Change the Weather History Date:

Tuesday, August 20, 2013

  Actual Average Record
Temperature  
Mean Temperature 68 °F 68 °F  
Max Temperature 75 °F 77 °F 83 °F (1986)
Min Temperature 61 °F 59 °F 50 °F (1953)
Degree Days  
Heating Degree Days 0 0  
Month to date heating degree days 1 0  
Since 1 June heating degree days 3 53  
Since 1 July heating degree days 3 10  
Cooling Degree Days 3 3  
Month to date cooling degree days 38 60  
Year to date cooling degree days 407 185  
Since 1 June cooling degree days 301 154  
Growing Degree Days 17 (Base 50)    
Moisture  
Dew Point 58 °F    
Average Humidity 77    
Maximum Humidity 97    
Minimum Humidity 57    
Precipitation  
Precipitation 0.00 in 0.00 in 0.09 in (1983)
Month to date precipitation 0.00 0.02  
Year to date precipitation 2.19 11.02  
Since 1 July precipitation 0.04  
Sea Level Pressure  
Sea Level Pressure 29.93 in    
Wind  
Wind Speed 4 mph (West)    
Max Wind Speed 13 mph    
Max Gust Speed 17 mph    
Visibility 8 miles    
Events      
T = Trace of Precipitation, MM = Missing Value Source: NWS Daily Summary

Daily Weather History Graph

Daily Weather History Graph

Search for Another Location

Airport or City:

Trip Planner

Search our weather history database for the weather conditions in past years. The results will help you decide how hot, cold, wet, or windy it might be!

Date:

Astronomy

Aug. 20, 2013 Rise Set
Actual Time 6:21 AM PDT 7:37 PM PDT
Civil Twilight 5:55 AM PDT 8:03 PM PDT
Nautical Twilight 5:24 AM PDT 8:34 PM PDT
Astronomical Twilight 4:51 AM PDT 9:06 PM PDT
Moon 7:15 PM PDT (8/20) 5:55 AM PDT (8/20)
Length of Visible Light 14h 08m
Length of Day
13h 15m
Full, 100% of the Moon is Illuminated
Aug 20
Full
Aug 20
Full
Aug 28
Last Quarter
Sep 5
New
Sep 12
First Quarter

Hourly Weather History & Observations

Time (PDT) Temp. Dew Point Humidity Pressure Visibility Wind Dir Wind Speed Gust Speed Precip Events Conditions
12:55 AM 62.1 °F 57.9 °F 86% 29.94 in 10.0 mi Calm Calm - N/A   Overcast
1:55 AM 62.1 °F 57.9 °F 86% 29.93 in 9.0 mi Calm Calm - N/A   Overcast
2:55 AM 62.1 °F 57.9 °F 86% 29.93 in 8.0 mi West 4.6 mph - N/A   Overcast
3:55 AM 62.1 °F 59.0 °F 90% 29.92 in 7.0 mi Calm Calm - N/A   Overcast
4:41 AM 62.6 °F 57.2 °F 82% 29.89 in 5.0 mi North 3.5 mph - N/A   Overcast
4:55 AM 61.0 °F 57.9 °F 90% 29.92 in 5.0 mi Calm Calm - N/A   Overcast
5:55 AM 61.0 °F 59.0 °F 93% 29.92 in 5.0 mi Calm Calm - N/A   Overcast
6:55 AM 62.1 °F 59.0 °F 90% 29.93 in 4.0 mi Calm Calm - N/A   Overcast
7:44 AM 62.6 °F 59.0 °F 88% 29.92 in 5.0 mi Calm Calm - N/A   Overcast
7:55 AM 62.1 °F 59.0 °F 90% 29.96 in 5.0 mi WSW 4.6 mph - N/A   Overcast
8:55 AM 63.0 °F 59.0 °F 87% 29.97 in 6.0 mi NW 3.5 mph - N/A   Overcast
9:32 AM 62.6 °F 57.2 °F 82% 29.94 in 7.0 mi West 5.8 mph - N/A   Overcast
9:55 AM 64.0 °F 57.9 °F 80% 29.98 in 7.0 mi WNW 4.6 mph - N/A   Overcast
10:21 AM 64.4 °F 57.2 °F 77% 29.95 in 7.0 mi West 6.9 mph - N/A   Overcast
10:55 AM 64.9 °F 57.9 °F 78% 29.97 in 7.0 mi West 5.8 mph - N/A   Overcast
11:55 AM 68.0 °F 59.0 °F 73% 29.96 in 8.0 mi Variable 5.8 mph - N/A   Partly Cloudy
12:55 PM 73.0 °F 59.0 °F 61% 29.94 in 9.0 mi South 4.6 mph - N/A   Clear
1:55 PM 73.0 °F 57.9 °F 59% 29.92 in 10.0 mi West 9.2 mph - N/A   Clear
2:55 PM 72.0 °F 57.0 °F 59% 29.91 in 10.0 mi West 12.7 mph - N/A   Clear
3:55 PM 72.0 °F 55.9 °F 57% 29.91 in 10.0 mi West 9.2 mph - N/A   Clear
4:55 PM 70.0 °F 57.0 °F 63% 29.90 in 10.0 mi West 9.2 mph - N/A   Clear
5:55 PM 69.1 °F 57.9 °F 68% 29.89 in 10.0 mi West 8.1 mph - N/A   Clear
6:55 PM 68.0 °F 57.0 °F 68% 29.89 in 10.0 mi WNW 4.6 mph - N/A   Clear
7:55 PM 66.0 °F 55.9 °F 70% 29.90 in 10.0 mi SW 5.8 mph - N/A   Clear
8:55 PM 64.0 °F 57.0 °F 78% 29.93 in 10.0 mi Calm Calm - N/A   Clear
9:55 PM 64.0 °F 57.9 °F 80% 29.93 in 10.0 mi Calm Calm - N/A   Clear
10:55 PM 63.0 °F 57.0 °F 81% 29.93 in 10.0 mi Calm Calm - N/A   Clear
11:55 PM 63.0 °F 57.0 °F 81% 29.93 in 10.0 mi Calm Calm - N/A   Clear